Regional Weather Roundup
Issued by NWS Cleveland, OH

Home | Current Version | Previous Version | Graphics & Text | Print | Product List | Glossary On
Versions: 1 2 3 4 5 6 7 8 9 10 11 12 13 14 15 16 17 18 19 20 21 22 23 24 25 26 27 28 29 30 31 32 33 34 35 36 37 38 39 40 41 42 43 44 45 46 47 48 49 50
000
ASUS41 KCLE 270602
RWRCLE
OHIO REGIONAL WEATHER ROUNDUP
NATIONAL WEATHER SERVICE CLEVELAND, OH
100 AM EST FRI FEB 27 2015

NOTE: "FAIR" INDICATES FEW OR NO CLOUDS BELOW 12,000 FEET WITH NO
SIGNIFICANT WEATHER AND/OR OBSTRUCTIONS TO VISIBILITY.

OHZ001>008-015>018-024>027-034-035-043-044-270700-
   NORTHWEST OHIO

CITY           SKY/WX    TMP DP  RH WIND       PRES   REMARKS
DEFIANCE       CLEAR      3  -4  72 CALM      30.37R
FINDLAY        MOCLDY     7   0  73 N5        30.33R WCI  -2
TOLEDO EXPRESS CLEAR      0  -4  83 CALM      30.36R
TOLEDO EXEC    CLEAR      4  -4  69 CALM      30.37R
LIMA           CLOUDY    10   6  84 W3        30.32R
$$

OHZ009>014-019>023-028>033-038-089-270700-
   NORTHEAST OHIO

CITY           SKY/WX    TMP DP  RH WIND       PRES   REMARKS
CLE-HOPKINS    PTCLDY     7  -2  66 N6        30.36R WCI  -3
CLE-LAKEFRONT  PTCLDY     6  -2  69 NW9       30.34R WCI  -8
CUY CO. ARPT   NOT AVBL
LORAIN-ELYRIA  MOCLDY     5  -3  69 N6        30.34R WCI  -6
ASHTABULA      CLOUDY     4  -1  80 NW3       30.29R
AKRON-CANTON   PTCLDY     4  -1  80 NW5       30.26R WCI  -5
WOOSTER        PTCLDY    -1  -5  82 NW5       30.29R WCI -11
MANSFIELD      PTCLDY     2   1  96 NW6       30.28R FOG     WCI  -9
YOUNGSTOWN     PTCLDY     4   0  83 NW5       30.25R WCI  -5
$$

OHZ042-051>053-060>062-070>072-077>081-270700-
  SOUTHWEST OHIO

CITY           SKY/WX    TMP DP  RH WIND       PRES   REMARKS
CINC-COVINGTON CLOUDY    11   4  73 NW7       30.35R WCI   0
CINC-LUNKEN    PTCLDY     7   3  84 CALM      30.40R
HAMILTON       CLOUDY     6   2  83 CALM      30.39R
DAYTON         MOCLDY     7   3  84 W3        30.34R
WRIGHT-PAT AFB NOT AVBL
DAYTON GENERAL MOCLDY     9   4  80 NW5       30.33R WCI   1
WILMINGTON     FAIR       8   2  76 NW3       30.32R
$$

OHZ036-037-039>041-045>050-054>059-063>069-073>076-082>088-270700-
  CENTRAL AND SOUTHEAST OHIO

CITY           SKY/WX    TMP DP  RH WIND       PRES   REMARKS
COLUMBUS       CLEAR      8   3  80 N5        30.33R WCI   0
OSU AIRPORT    CLEAR      5   1  83 NW6       30.33R WCI  -6
BOLTON FIELD   NOT AVBL
RICKENBACK AFB NOT AVBL
NEWARK         CLEAR      3  -1  83 NW3       30.31R
MARION         LGT SNOW   8   4  83 NW3       30.32R FOG
LANCASTER      CLEAR      7   2  80 N3        30.33R
ZANESVILLE     PTCLDY     8   2  76 NW6       30.30R WCI  -2
NEW PHILLY     PTCLDY    10   2  69 N3        30.31R
$$



USA.gov is the U.S. government's official web portal to all federal, state and local government web resources and services.